Year,Month,Day,Hour,Minute,Value (Times are PST for temperature in C)
2020,01,14,00,00,13.00
2020,01,14,00,01,13.00
2020,01,14,00,02,13.00
2020,01,14,00,03,13.00
2020,01,14,00,04,13.00
2020,01,14,00,05,13.00
2020,01,14,00,06,13.00
2020,01,14,00,07,13.00
2020,01,14,00,08,12.90
2020,01,14,00,09,12.90
2020,01,14,00,10,12.90
2020,01,14,00,11,12.90
2020,01,14,00,12,12.80
2020,01,14,00,13,12.80
2020,01,14,00,14,12.80
2020,01,14,00,15,12.70
2020,01,14,00,16,12.70
2020,01,14,00,17,12.70
2020,01,14,00,18,12.70
2020,01,14,00,19,12.60
2020,01,14,00,20,12.60
2020,01,14,00,21,12.60
2020,01,14,00,22,12.60
2020,01,14,00,23,12.60
2020,01,14,00,24,12.60
2020,01,14,00,25,12.60
2020,01,14,00,26,12.60
2020,01,14,00,27,12.60
2020,01,14,00,28,12.60
2020,01,14,00,29,12.70
2020,01,14,00,30,12.70
2020,01,14,00,31,12.70
2020,01,14,00,32,12.70
2020,01,14,00,33,12.70
2020,01,14,00,34,12.70
2020,01,14,00,35,12.80
2020,01,14,00,36,12.80
2020,01,14,00,37,12.80
2020,01,14,00,38,12.80
2020,01,14,00,39,12.80
2020,01,14,00,40,12.80
2020,01,14,00,41,12.80
2020,01,14,00,42,12.80
2020,01,14,00,43,12.70
2020,01,14,00,44,12.70
2020,01,14,00,45,12.70
2020,01,14,00,46,12.70
2020,01,14,00,47,12.70
2020,01,14,00,48,12.70
2020,01,14,00,49,12.60
2020,01,14,00,50,12.60
2020,01,14,00,51,12.60
2020,01,14,00,52,12.60
2020,01,14,00,53,12.60
2020,01,14,00,54,12.60
2020,01,14,00,55,12.60
2020,01,14,00,56,12.60
2020,01,14,00,57,12.70
2020,01,14,00,58,12.70
2020,01,14,00,59,12.70
2020,01,14,01,00,12.70
2020,01,14,01,01,12.70
2020,01,14,01,02,12.70
2020,01,14,01,03,12.80
2020,01,14,01,04,12.80
2020,01,14,01,05,12.80
2020,01,14,01,06,12.80
2020,01,14,01,07,12.80
2020,01,14,01,08,12.80
2020,01,14,01,09,12.90
2020,01,14,01,10,12.90
2020,01,14,01,11,12.90
2020,01,14,01,12,12.90
2020,01,14,01,13,12.90
2020,01,14,01,14,12.90
2020,01,14,01,15,12.90
2020,01,14,01,16,12.90
2020,01,14,01,17,12.90
2020,01,14,01,18,12.90
2020,01,14,01,19,12.90
2020,01,14,01,20,12.90
2020,01,14,01,21,12.90
2020,01,14,01,22,12.90
2020,01,14,01,23,12.80
2020,01,14,01,24,12.80
2020,01,14,01,25,12.80
2020,01,14,01,26,12.80
2020,01,14,01,27,12.80
2020,01,14,01,28,12.80
2020,01,14,01,29,12.80
2020,01,14,01,30,12.80
2020,01,14,01,31,12.80
2020,01,14,01,32,12.70
2020,01,14,01,33,12.70
2020,01,14,01,34,12.70
2020,01,14,01,35,12.70
2020,01,14,01,36,12.70
2020,01,14,01,37,12.80
2020,01,14,01,38,12.80
2020,01,14,01,39,12.80
2020,01,14,01,40,12.80
2020,01,14,01,41,12.90
2020,01,14,01,42,12.90
2020,01,14,01,43,12.90
2020,01,14,01,44,12.90
2020,01,14,01,45,12.80
2020,01,14,01,46,12.90
2020,01,14,01,47,12.80
2020,01,14,01,48,12.80
2020,01,14,01,49,12.80
2020,01,14,01,50,12.80
2020,01,14,01,51,12.80
2020,01,14,01,52,12.80
2020,01,14,01,53,12.80
2020,01,14,01,54,12.80
2020,01,14,01,55,12.80
2020,01,14,01,56,12.80
2020,01,14,01,57,12.80
2020,01,14,01,58,12.80
2020,01,14,01,59,12.80
2020,01,14,02,00,12.80
2020,01,14,02,01,12.80
2020,01,14,02,02,12.70
2020,01,14,02,03,12.70
2020,01,14,02,04,12.70
2020,01,14,02,05,12.70
2020,01,14,02,06,12.70
2020,01,14,02,07,12.60
2020,01,14,02,08,12.60
2020,01,14,02,09,12.60
2020,01,14,02,10,12.60
2020,01,14,02,11,12.60
2020,01,14,02,12,12.60
2020,01,14,02,13,12.60
2020,01,14,02,14,12.60
2020,01,14,02,15,12.60
2020,01,14,02,16,12.60
2020,01,14,02,17,12.60
2020,01,14,02,18,12.60
2020,01,14,02,19,12.60
2020,01,14,02,20,12.60
2020,01,14,02,21,12.60
2020,01,14,02,22,12.60
2020,01,14,02,23,12.60
2020,01,14,02,24,12.60
2020,01,14,02,25,12.60
2020,01,14,02,26,12.60
2020,01,14,02,27,12.60
2020,01,14,02,28,12.60
2020,01,14,02,29,12.60
2020,01,14,02,30,12.60
2020,01,14,02,31,12.60
2020,01,14,02,32,12.60
2020,01,14,02,33,12.60
2020,01,14,02,34,12.60
2020,01,14,02,35,12.60
2020,01,14,02,36,12.60
2020,01,14,02,37,12.60
2020,01,14,02,38,12.60
2020,01,14,02,39,12.60
2020,01,14,02,40,12.60
2020,01,14,02,41,12.60
2020,01,14,02,42,12.60
2020,01,14,02,43,12.60
2020,01,14,02,44,12.60
2020,01,14,02,45,12.60
2020,01,14,02,46,12.60
2020,01,14,02,47,12.70
2020,01,14,02,48,12.70
2020,01,14,02,49,12.70
2020,01,14,02,50,12.70
2020,01,14,02,51,12.80
2020,01,14,02,52,12.80
2020,01,14,02,53,12.80
2020,01,14,02,54,12.80
2020,01,14,02,55,12.80
2020,01,14,02,56,12.80
2020,01,14,02,57,12.80
2020,01,14,02,58,12.80
2020,01,14,02,59,12.80
2020,01,14,03,00,12.70
2020,01,14,03,01,12.70
2020,01,14,03,02,12.70
2020,01,14,03,03,12.70
2020,01,14,03,04,12.70
2020,01,14,03,05,12.70
2020,01,14,03,06,12.70
2020,01,14,03,07,12.70
2020,01,14,03,08,12.70
2020,01,14,03,09,12.70
2020,01,14,03,10,12.80
2020,01,14,03,11,12.80
2020,01,14,03,12,12.80
2020,01,14,03,13,12.80
2020,01,14,03,14,12.80
2020,01,14,03,15,12.80
2020,01,14,03,16,12.80
2020,01,14,03,17,12.90
2020,01,14,03,18,12.90
2020,01,14,03,19,12.90
2020,01,14,03,20,12.90
2020,01,14,03,21,12.80
2020,01,14,03,22,12.80
2020,01,14,03,23,12.80
2020,01,14,03,24,12.80
2020,01,14,03,25,12.70
2020,01,14,03,26,12.80
2020,01,14,03,27,12.70
2020,01,14,03,28,12.70
2020,01,14,03,29,12.70
2020,01,14,03,30,12.70
2020,01,14,03,31,12.70
2020,01,14,03,32,12.70
2020,01,14,03,33,12.70
2020,01,14,03,34,12.70
2020,01,14,03,35,12.70
2020,01,14,03,36,12.60
2020,01,14,03,37,12.60
2020,01,14,03,38,12.60
2020,01,14,03,39,12.60
2020,01,14,03,40,12.60
2020,01,14,03,41,12.60
2020,01,14,03,42,12.60
2020,01,14,03,43,12.60
2020,01,14,03,44,12.60
2020,01,14,03,45,12.60
2020,01,14,03,46,12.70
2020,01,14,03,47,12.70
2020,01,14,03,48,12.70
2020,01,14,03,49,12.70
2020,01,14,03,50,12.60
2020,01,14,03,51,12.60
2020,01,14,03,52,12.60
2020,01,14,03,53,12.50
2020,01,14,03,54,12.50
2020,01,14,03,55,12.50
2020,01,14,03,56,12.50
2020,01,14,03,57,12.50
2020,01,14,03,58,12.40
2020,01,14,03,59,12.40
2020,01,14,04,00,12.40
2020,01,14,04,01,12.40
2020,01,14,04,02,12.40
2020,01,14,04,03,12.40
2020,01,14,04,04,12.40
2020,01,14,04,05,12.40
2020,01,14,04,06,12.40
2020,01,14,04,07,12.40
2020,01,14,04,08,12.40
2020,01,14,04,09,12.40
2020,01,14,04,10,12.30
2020,01,14,04,11,12.30
2020,01,14,04,12,12.40
2020,01,14,04,13,12.40
2020,01,14,04,14,12.40
2020,01,14,04,15,12.40
2020,01,14,04,16,12.40
2020,01,14,04,17,12.40
2020,01,14,04,18,12.40
2020,01,14,04,19,12.40
2020,01,14,04,20,12.40
2020,01,14,04,21,12.40
2020,01,14,04,22,12.40
2020,01,14,04,23,12.40
2020,01,14,04,24,12.40
2020,01,14,04,25,12.30
2020,01,14,04,26,12.30
2020,01,14,04,27,12.30
2020,01,14,04,28,12.30
2020,01,14,04,29,12.30
2020,01,14,04,30,12.30
2020,01,14,04,31,12.30
2020,01,14,04,32,12.20
2020,01,14,04,33,12.20
2020,01,14,04,34,12.20
2020,01,14,04,35,12.20
2020,01,14,04,36,12.20
2020,01,14,04,37,12.20
2020,01,14,04,38,12.20
2020,01,14,04,39,12.20
2020,01,14,04,40,12.20
2020,01,14,04,41,12.10
2020,01,14,04,42,12.10
2020,01,14,04,43,12.10
2020,01,14,04,44,12.10
2020,01,14,04,45,12.10
2020,01,14,04,46,12.10
2020,01,14,04,47,12.10
2020,01,14,04,48,12.10
2020,01,14,04,49,12.10
2020,01,14,04,50,12.10
2020,01,14,04,51,12.00
2020,01,14,04,52,12.00
2020,01,14,04,53,11.90
2020,01,14,04,54,11.90
2020,01,14,04,55,11.90
2020,01,14,04,56,11.90
2020,01,14,04,57,11.90
2020,01,14,04,58,11.90
2020,01,14,04,59,11.80
2020,01,14,05,00,11.80
2020,01,14,05,01,11.80
2020,01,14,05,02,11.80
2020,01,14,05,03,11.80
2020,01,14,05,04,11.80
2020,01,14,05,05,11.70
2020,01,14,05,06,11.70
2020,01,14,05,07,11.70
2020,01,14,05,08,11.70
2020,01,14,05,09,11.70
2020,01,14,05,10,11.80
2020,01,14,05,11,11.80
2020,01,14,05,12,11.80
2020,01,14,05,13,11.80
2020,01,14,05,14,11.80
2020,01,14,05,15,11.80
2020,01,14,05,16,11.80
2020,01,14,05,17,11.80
2020,01,14,05,18,11.80
2020,01,14,05,19,11.80
2020,01,14,05,20,11.80
2020,01,14,05,21,11.80
2020,01,14,05,22,11.80
2020,01,14,05,23,11.80
2020,01,14,05,24,11.80
2020,01,14,05,25,11.80
2020,01,14,05,26,11.80
2020,01,14,05,27,11.80
2020,01,14,05,28,11.80
2020,01,14,05,29,11.80
2020,01,14,05,30,11.80
2020,01,14,05,31,11.80
2020,01,14,05,32,11.80
2020,01,14,05,33,11.80
2020,01,14,05,34,11.80
2020,01,14,05,35,11.70
2020,01,14,05,36,11.70
2020,01,14,05,37,11.70
2020,01,14,05,38,11.70
2020,01,14,05,39,11.70
2020,01,14,05,40,11.70
2020,01,14,05,41,11.70
2020,01,14,05,42,11.60
2020,01,14,05,43,11.60
2020,01,14,05,44,11.60
2020,01,14,05,45,11.60
2020,01,14,05,46,11.60
2020,01,14,05,47,11.50
2020,01,14,05,48,11.50
2020,01,14,05,49,11.50
2020,01,14,05,50,11.50
2020,01,14,05,51,11.40
2020,01,14,05,52,11.40
2020,01,14,05,53,-3.10
2020,01,14,05,54,-3.80
2020,01,14,05,55,-3.80
2020,01,14,05,56,-3.80
2020,01,14,05,57,-3.80
2020,01,14,05,58,-3.80
2020,01,14,05,59,-3.80
2020,01,14,06,00,-3.80
2020,01,14,06,01,-3.80
2020,01,14,06,02,-3.80
2020,01,14,06,03,-3.80
2020,01,14,06,04,-3.80
2020,01,14,06,05,-3.90
2020,01,14,06,06,-3.90
2020,01,14,06,07,-3.90
2020,01,14,06,08,-3.90
2020,01,14,06,09,-3.90
2020,01,14,06,10,-3.90
2020,01,14,06,11,-3.90
2020,01,14,06,12,-3.90
2020,01,14,06,13,-3.90
2020,01,14,06,14,-3.90
2020,01,14,06,15,-3.90
2020,01,14,06,16,-3.90
2020,01,14,06,17,-3.90
2020,01,14,06,18,-3.90
2020,01,14,06,19,-4.00
2020,01,14,06,20,-4.00
2020,01,14,06,21,-4.00
2020,01,14,06,22,-4.00
2020,01,14,06,23,-4.00
2020,01,14,06,24,-4.00
2020,01,14,06,25,-4.00
2020,01,14,06,26,-4.00
2020,01,14,06,27,-4.00
2020,01,14,06,28,-4.00
2020,01,14,06,29,-4.00
2020,01,14,06,30,-4.00
2020,01,14,06,31,-4.00
2020,01,14,06,32,-4.10
2020,01,14,06,33,-4.10
2020,01,14,06,34,-4.10
2020,01,14,06,35,-4.10
2020,01,14,06,36,-4.10
2020,01,14,06,37,-4.10
2020,01,14,06,38,-4.10
2020,01,14,06,39,-4.10
2020,01,14,06,40,-4.10
2020,01,14,06,41,-4.10
2020,01,14,06,42,-4.10
2020,01,14,06,43,-4.10
2020,01,14,06,44,-4.10
2020,01,14,06,45,-4.10
2020,01,14,06,46,-4.10
2020,01,14,06,47,-4.10
2020,01,14,06,48,-4.10
2020,01,14,06,49,-4.10
2020,01,14,06,50,-4.10
2020,01,14,06,51,-4.20
2020,01,14,06,52,-4.20
2020,01,14,06,53,-4.20
2020,01,14,06,54,-4.20
2020,01,14,06,55,-4.20
2020,01,14,06,56,-4.20
2020,01,14,06,57,-4.20
2020,01,14,06,58,-4.20
2020,01,14,06,59,-4.20
2020,01,14,07,00,-4.20
2020,01,14,07,01,-4.20
2020,01,14,07,02,-4.20
2020,01,14,07,03,-4.20
2020,01,14,07,04,-4.20
2020,01,14,07,05,-4.20
2020,01,14,07,06,-4.20
2020,01,14,07,07,-4.20
2020,01,14,07,08,-4.20
2020,01,14,07,09,-4.30
2020,01,14,07,10,-4.30
2020,01,14,07,11,-4.30
2020,01,14,07,12,-4.30
2020,01,14,07,13,-4.30
2020,01,14,07,14,-4.30
2020,01,14,07,15,-4.30
2020,01,14,07,16,-4.30
2020,01,14,07,17,-4.30
2020,01,14,07,18,-4.30
2020,01,14,07,19,-4.30
2020,01,14,07,20,-4.40
2020,01,14,07,21,-4.40
2020,01,14,07,22,-4.40
2020,01,14,07,23,-4.40
2020,01,14,07,24,-4.40
2020,01,14,07,25,-4.40
2020,01,14,07,26,-4.50
2020,01,14,07,27,-4.50
2020,01,14,07,28,-4.50
2020,01,14,07,29,-4.50
2020,01,14,07,30,-4.60
2020,01,14,07,31,-4.60
2020,01,14,07,32,-4.60
2020,01,14,07,33,-4.60
2020,01,14,07,34,-4.60
2020,01,14,07,35,-4.60
2020,01,14,07,36,-4.70
2020,01,14,07,37,-4.70
2020,01,14,07,38,-4.70
2020,01,14,07,39,-4.70
2020,01,14,07,40,-4.70
2020,01,14,07,41,-4.70
2020,01,14,07,42,-4.70
2020,01,14,07,43,-4.80
2020,01,14,07,44,-4.80
2020,01,14,07,45,-4.80
2020,01,14,07,46,-4.80
2020,01,14,07,47,-4.80
2020,01,14,07,48,-4.80
2020,01,14,07,49,-4.90
2020,01,14,07,50,-4.90
2020,01,14,07,51,-4.90
2020,01,14,07,52,-4.90
2020,01,14,07,53,-4.90
2020,01,14,07,54,-5.00
2020,01,14,07,55,-5.00
2020,01,14,07,56,-5.00
2020,01,14,07,57,-5.10
2020,01,14,07,58,-5.10
2020,01,14,07,59,-5.10
2020,01,14,08,00,-5.10
2020,01,14,08,01,-5.10
2020,01,14,08,02,-5.20
2020,01,14,08,03,-5.20
2020,01,14,08,04,-5.20
2020,01,14,08,05,-5.20
2020,01,14,08,06,-5.20
2020,01,14,08,07,-5.20
2020,01,14,08,08,-5.30
2020,01,14,08,09,-5.30
2020,01,14,08,10,-5.30
2020,01,14,08,11,-5.30
2020,01,14,08,12,-5.30
2020,01,14,08,13,-5.30
2020,01,14,08,14,-5.30
2020,01,14,08,15,-5.30
2020,01,14,08,16,-5.30
2020,01,14,08,17,-5.30
2020,01,14,08,18,-5.30
2020,01,14,08,19,-5.30
2020,01,14,08,20,-5.30
2020,01,14,08,21,-5.30
2020,01,14,08,22,-5.30
2020,01,14,08,23,-5.30
2020,01,14,08,24,-5.30
2020,01,14,08,25,-5.30
2020,01,14,08,26,-5.30
2020,01,14,08,27,-5.30
2020,01,14,08,28,-5.30
2020,01,14,08,29,-5.30
2020,01,14,08,30,-5.30
2020,01,14,08,31,-5.30
2020,01,14,08,32,-5.30
2020,01,14,08,33,-5.30
2020,01,14,08,34,-5.30
2020,01,14,08,35,-5.30
2020,01,14,08,36,-5.30
2020,01,14,08,37,-5.30
2020,01,14,08,38,-5.30
2020,01,14,08,39,-5.30
2020,01,14,08,40,-5.30
2020,01,14,08,41,-5.40
2020,01,14,08,42,-5.40
2020,01,14,08,43,-5.40
2020,01,14,08,44,-5.40
2020,01,14,08,45,-5.40
2020,01,14,08,46,-5.40
2020,01,14,08,47,-5.40
2020,01,14,08,48,-5.40
2020,01,14,08,49,-5.40
2020,01,14,08,50,-5.40
2020,01,14,08,51,-5.40
2020,01,14,08,52,-5.40
2020,01,14,08,53,-5.40
2020,01,14,08,54,-5.40
2020,01,14,08,55,-5.40
2020,01,14,08,56,-5.40
2020,01,14,08,57,-5.30
2020,01,14,08,58,-5.30
2020,01,14,08,59,-5.30
2020,01,14,09,00,-5.30
2020,01,14,09,01,-5.30
2020,01,14,09,02,-5.30
2020,01,14,09,03,-5.30
2020,01,14,09,04,-5.30
2020,01,14,09,05,-5.30
2020,01,14,09,06,-5.20
2020,01,14,09,07,-5.20
2020,01,14,09,08,-5.20
2020,01,14,09,09,-5.20
2020,01,14,09,10,-5.20
2020,01,14,09,11,-5.20
2020,01,14,09,12,-5.10
2020,01,14,09,13,-5.10
2020,01,14,09,14,-5.10
2020,01,14,09,15,-5.10
2020,01,14,09,16,-5.10
2020,01,14,09,17,-5.10
2020,01,14,09,18,-5.10
2020,01,14,09,19,-5.10
2020,01,14,09,20,-5.10
2020,01,14,09,21,-5.10
2020,01,14,09,22,-5.10
2020,01,14,09,23,-5.00
2020,01,14,09,24,-5.00
2020,01,14,09,25,-5.00
2020,01,14,09,26,-5.00
2020,01,14,09,27,-5.00
2020,01,14,09,28,-4.90
2020,01,14,09,29,-4.90
2020,01,14,09,30,-4.90
2020,01,14,09,31,-4.90
2020,01,14,09,32,-4.90
2020,01,14,09,33,-4.90
2020,01,14,09,34,-4.90
2020,01,14,09,35,-4.90
2020,01,14,09,36,-4.90
2020,01,14,09,37,-4.90
2020,01,14,09,38,-4.90
2020,01,14,09,39,-4.90
2020,01,14,09,40,-4.90
2020,01,14,09,41,-4.90
2020,01,14,09,42,-4.80
2020,01,14,09,43,-4.80
2020,01,14,09,44,-4.80
2020,01,14,09,45,-4.80
2020,01,14,09,46,-4.80
2020,01,14,09,47,-4.80
2020,01,14,09,48,-4.80
2020,01,14,09,49,-4.80
2020,01,14,09,50,-4.80
2020,01,14,09,51,-4.80
2020,01,14,09,52,-4.80
2020,01,14,09,53,-4.70
2020,01,14,09,54,-4.70
2020,01,14,09,55,-4.70
2020,01,14,09,56,-4.70
2020,01,14,09,57,-4.70
2020,01,14,09,58,-4.70
2020,01,14,09,59,-4.70
2020,01,14,10,00,-4.70
2020,01,14,10,01,-4.70
2020,01,14,10,02,-4.70
2020,01,14,10,03,-4.70
2020,01,14,10,04,-4.70
2020,01,14,10,05,-4.70
2020,01,14,10,06,-4.70
2020,01,14,10,07,-4.70
2020,01,14,10,08,-4.70
2020,01,14,10,09,-4.80
2020,01,14,10,10,-4.80
2020,01,14,10,11,-4.80
2020,01,14,10,12,-4.80
2020,01,14,10,13,-4.80
2020,01,14,10,14,-4.80
2020,01,14,10,15,-4.80
2020,01,14,10,16,-4.80
2020,01,14,10,17,-4.80
2020,01,14,10,18,-4.80
2020,01,14,10,19,-4.80
2020,01,14,10,20,-4.70
2020,01,14,10,21,-4.70
2020,01,14,10,22,-4.70
2020,01,14,10,23,-4.70
2020,01,14,10,24,-4.70
2020,01,14,10,25,-4.70
2020,01,14,10,26,-4.70
2020,01,14,10,27,-4.70
2020,01,14,10,28,-4.70
2020,01,14,10,29,-4.70
2020,01,14,10,30,-4.70
2020,01,14,10,31,-4.70
2020,01,14,10,32,-4.70
2020,01,14,10,33,-4.70
2020,01,14,10,34,-4.70
2020,01,14,10,35,-4.70
2020,01,14,10,36,-4.70
2020,01,14,10,37,-4.70
2020,01,14,10,38,-4.70
2020,01,14,10,39,-4.70
2020,01,14,10,40,-4.70
2020,01,14,10,41,-4.70
2020,01,14,10,42,-4.60
2020,01,14,10,43,-4.60
2020,01,14,10,44,-4.60
2020,01,14,10,45,-4.60
2020,01,14,10,46,-4.60
2020,01,14,10,47,-4.60
2020,01,14,10,48,-4.60
2020,01,14,10,49,-4.60
2020,01,14,10,50,-4.60
2020,01,14,10,51,-4.60
2020,01,14,10,52,-4.60
2020,01,14,10,53,-4.60
2020,01,14,10,54,-4.60
2020,01,14,10,55,-4.60
2020,01,14,10,56,-4.50
2020,01,14,10,57,-4.50
2020,01,14,10,58,-4.50
2020,01,14,10,59,-4.50
2020,01,14,11,00,-4.50
2020,01,14,11,01,-4.50
2020,01,14,11,02,-4.50
2020,01,14,11,03,-4.40
2020,01,14,11,04,-4.40
2020,01,14,11,05,-4.40
2020,01,14,11,06,-4.40
2020,01,14,11,07,-4.40
2020,01,14,11,08,-4.40
2020,01,14,11,09,-4.40
2020,01,14,11,10,-4.40
2020,01,14,11,11,-4.30
2020,01,14,11,12,-4.30
2020,01,14,11,13,-4.30
2020,01,14,11,14,-4.30
2020,01,14,11,15,-4.30
2020,01,14,11,16,-4.30
2020,01,14,11,17,-4.30
2020,01,14,11,18,-4.30
2020,01,14,11,19,-4.30
2020,01,14,11,20,-4.30
2020,01,14,11,21,-4.20
2020,01,14,11,22,-4.20
2020,01,14,11,23,-4.20
2020,01,14,11,24,-4.20
2020,01,14,11,25,-4.20
2020,01,14,11,26,-4.20
2020,01,14,11,27,-4.20
2020,01,14,11,28,-4.20
2020,01,14,11,29,-4.20
2020,01,14,11,30,-4.20
2020,01,14,11,31,-4.20
2020,01,14,11,32,-4.10
2020,01,14,11,33,-4.10
2020,01,14,11,34,-4.10
2020,01,14,11,35,-4.00
2020,01,14,11,36,-4.00
2020,01,14,11,37,-3.90
2020,01,14,11,38,-3.90
2020,01,14,11,39,-3.90
2020,01,14,11,40,-3.90
2020,01,14,11,41,-3.90
2020,01,14,11,42,-3.90
2020,01,14,11,43,-3.90
2020,01,14,11,44,-3.90
2020,01,14,11,45,-3.90
2020,01,14,11,46,-3.80
2020,01,14,11,47,-3.80
2020,01,14,11,48,-3.80
2020,01,14,11,49,-3.80
2020,01,14,11,50,-3.80
2020,01,14,11,51,-3.80
2020,01,14,11,52,-3.80
2020,01,14,11,53,-3.80
2020,01,14,11,54,-3.80
2020,01,14,11,55,-3.80
2020,01,14,11,56,-3.80
2020,01,14,11,57,-3.80
2020,01,14,11,58,-3.80
2020,01,14,11,59,-3.70
2020,01,14,12,00,-3.70
2020,01,14,12,01,-3.70
2020,01,14,12,02,-3.70
2020,01,14,12,03,-3.60
2020,01,14,12,04,-3.60
2020,01,14,12,05,-3.60
2020,01,14,12,06,-3.60
2020,01,14,12,07,-3.60
2020,01,14,12,08,-3.50
2020,01,14,12,09,-3.50
2020,01,14,12,10,-3.40
2020,01,14,12,11,-3.40
2020,01,14,12,12,-3.40
2020,01,14,12,13,-3.40
2020,01,14,12,14,-3.40
2020,01,14,12,15,-3.40
2020,01,14,12,16,-3.40
2020,01,14,12,17,-3.40
2020,01,14,12,18,-3.40
2020,01,14,12,19,-3.30
2020,01,14,12,20,-3.30
2020,01,14,12,21,-3.30
2020,01,14,12,22,-3.30
2020,01,14,12,23,-3.30
2020,01,14,12,24,-3.30
2020,01,14,12,25,-3.20
2020,01,14,12,26,-3.20
2020,01,14,12,27,-3.20
2020,01,14,12,28,-3.20
2020,01,14,12,29,-3.20
2020,01,14,12,30,-3.10
2020,01,14,12,31,-3.10
2020,01,14,12,32,-3.10
2020,01,14,12,33,-3.10
2020,01,14,12,34,-3.00
2020,01,14,12,35,-3.00
2020,01,14,12,36,-3.00
2020,01,14,12,37,-3.00
2020,01,14,12,38,-2.90
2020,01,14,12,39,-2.90
2020,01,14,12,40,-2.90
2020,01,14,12,41,-2.90
2020,01,14,12,42,-2.90
2020,01,14,12,43,-2.80
2020,01,14,12,44,-2.80
2020,01,14,12,45,-2.80
2020,01,14,12,46,-2.80
2020,01,14,12,47,-2.80
2020,01,14,12,48,-2.80
2020,01,14,12,49,-2.80
2020,01,14,12,50,-2.90
2020,01,14,12,51,-2.90
2020,01,14,12,52,-2.90
2020,01,14,12,53,-2.90
2020,01,14,12,54,-2.80
2020,01,14,12,55,-2.80
2020,01,14,12,56,-2.80
2020,01,14,12,57,-2.80
2020,01,14,12,58,-2.70
2020,01,14,12,59,-2.70
2020,01,14,13,00,-2.70
2020,01,14,13,01,-2.70
2020,01,14,13,02,-2.70
2020,01,14,13,03,-2.70
2020,01,14,13,04,-2.70
2020,01,14,13,05,-2.70
2020,01,14,13,06,-2.70
2020,01,14,13,07,-2.60
2020,01,14,13,08,-2.60
2020,01,14,13,09,-2.60
2020,01,14,13,10,-2.60
2020,01,14,13,11,-2.50
2020,01,14,13,12,-2.40
2020,01,14,13,13,-2.30
2020,01,14,13,14,-2.20
2020,01,14,13,15,-2.10
2020,01,14,13,16,-2.00
2020,01,14,13,17,-1.90
2020,01,14,13,18,-1.80
2020,01,14,13,19,-1.80
2020,01,14,13,20,-1.80
2020,01,14,13,21,-1.70
2020,01,14,13,22,-1.70
2020,01,14,13,23,-1.70
2020,01,14,13,24,-1.60
2020,01,14,13,25,-1.60
2020,01,14,13,26,-1.60
2020,01,14,13,27,-1.60
2020,01,14,13,28,-1.60
2020,01,14,13,29,-1.50
2020,01,14,13,30,-1.50
2020,01,14,13,31,-1.40
2020,01,14,13,32,-1.40
2020,01,14,13,33,-1.30
2020,01,14,13,34,-1.30
2020,01,14,13,35,-1.30
2020,01,14,13,36,-1.30
2020,01,14,13,37,-1.30
2020,01,14,13,38,-1.30
2020,01,14,13,39,-1.30
2020,01,14,13,40,-1.20
2020,01,14,13,41,-1.20
2020,01,14,13,42,-1.20
2020,01,14,13,43,-1.20
2020,01,14,13,44,-1.20
2020,01,14,13,45,-1.20
2020,01,14,13,46,-1.20
2020,01,14,13,47,-1.30
2020,01,14,13,48,-1.30
2020,01,14,13,49,-1.30
2020,01,14,13,50,-1.30
2020,01,14,13,51,-1.30
2020,01,14,13,52,-1.30
2020,01,14,13,53,-1.30
2020,01,14,13,54,-1.30
2020,01,14,13,55,-1.30
2020,01,14,13,56,-1.30
2020,01,14,13,57,-1.30
2020,01,14,13,58,-1.30
2020,01,14,13,59,-1.30
2020,01,14,14,00,-1.30
2020,01,14,14,01,-1.30
2020,01,14,14,02,-1.30
2020,01,14,14,03,-1.30
2020,01,14,14,04,-1.30
2020,01,14,14,05,-1.30
2020,01,14,14,06,-1.30
2020,01,14,14,07,-1.30
2020,01,14,14,08,-1.30
2020,01,14,14,09,-1.30
2020,01,14,14,10,-1.30
2020,01,14,14,11,-1.30
2020,01,14,14,12,-1.30
2020,01,14,14,13,-1.30
2020,01,14,14,14,-1.30
2020,01,14,14,15,-1.30
2020,01,14,14,16,-1.30
2020,01,14,14,17,-1.30
2020,01,14,14,18,-1.30
2020,01,14,14,19,-1.30
2020,01,14,14,20,-1.30
2020,01,14,14,21,-1.20
2020,01,14,14,22,-1.20
2020,01,14,14,23,-1.20
2020,01,14,14,24,-1.20
2020,01,14,14,25,-1.10
2020,01,14,14,26,-1.10
2020,01,14,14,27,-1.10
2020,01,14,14,28,-1.10
2020,01,14,14,29,-1.10
2020,01,14,14,30,-1.10
2020,01,14,14,31,-1.10
2020,01,14,14,32,-1.10
2020,01,14,14,33,-1.10
2020,01,14,14,34,-1.10
2020,01,14,14,35,-1.10
2020,01,14,14,36,-1.10
2020,01,14,14,37,-1.10
2020,01,14,14,38,-1.10
2020,01,14,14,39,-1.10
2020,01,14,14,40,-1.10
2020,01,14,14,41,-1.10
2020,01,14,14,42,-1.10
2020,01,14,14,43,-1.10
2020,01,14,14,44,-1.10
2020,01,14,14,45,-1.10
2020,01,14,14,46,-1.10
2020,01,14,14,47,-1.20
2020,01,14,14,48,-1.20
2020,01,14,14,49,-1.30
2020,01,14,14,50,-1.30
2020,01,14,14,51,-1.40
2020,01,14,14,52,-1.40
2020,01,14,14,53,-1.50
2020,01,14,14,54,-1.50
2020,01,14,14,55,-1.50
2020,01,14,14,56,-1.60
2020,01,14,14,57,-1.60
2020,01,14,14,58,-1.60
2020,01,14,14,59,-1.70
2020,01,14,15,00,-1.70
2020,01,14,15,01,-1.70
2020,01,14,15,02,-1.80
2020,01,14,15,03,-1.80
2020,01,14,15,04,-1.80
2020,01,14,15,05,-1.90
2020,01,14,15,06,-1.90
2020,01,14,15,07,-2.00
2020,01,14,15,08,-2.00
2020,01,14,15,09,-2.10
2020,01,14,15,10,-2.10
2020,01,14,15,11,-2.10
2020,01,14,15,12,-2.10
2020,01,14,15,13,-2.10
2020,01,14,15,14,-2.10
2020,01,14,15,15,-2.20
2020,01,14,15,16,-2.20
2020,01,14,15,17,-2.20
2020,01,14,15,18,-2.20
2020,01,14,15,19,-2.20
2020,01,14,15,20,-2.20
2020,01,14,15,21,-2.20
2020,01,14,15,22,-2.20
2020,01,14,15,23,-2.20
2020,01,14,15,24,-2.20
2020,01,14,15,25,-2.20
2020,01,14,15,26,-2.20
2020,01,14,15,27,-2.20
2020,01,14,15,28,-2.20
2020,01,14,15,29,-2.20
2020,01,14,15,30,-2.30
2020,01,14,15,31,-2.30
2020,01,14,15,32,-2.30
2020,01,14,15,33,-2.30
2020,01,14,15,34,-2.30
2020,01,14,15,35,-2.30
2020,01,14,15,36,-2.30
2020,01,14,15,37,-2.40
2020,01,14,15,38,-2.40
2020,01,14,15,39,-2.40
2020,01,14,15,40,-2.40
2020,01,14,15,41,-2.40
2020,01,14,15,42,-2.50
2020,01,14,15,43,-2.50
2020,01,14,15,44,-2.50
2020,01,14,15,45,-2.60
2020,01,14,15,46,-2.60
2020,01,14,15,47,-2.60
2020,01,14,15,48,-2.60
2020,01,14,15,49,-2.70
2020,01,14,15,50,-2.70
2020,01,14,15,51,-2.70
2020,01,14,15,52,-2.80
2020,01,14,15,53,-2.80
2020,01,14,15,54,-2.90
2020,01,14,15,55,-2.90
2020,01,14,15,56,-2.90
2020,01,14,15,57,-3.00
2020,01,14,15,58,-3.00
2020,01,14,15,59,-3.10
2020,01,14,16,00,-3.10
2020,01,14,16,01,-3.10
2020,01,14,16,02,-3.20
2020,01,14,16,03,-3.20
2020,01,14,16,04,-3.20
2020,01,14,16,05,-3.20
2020,01,14,16,06,-3.20
2020,01,14,16,07,-3.30
2020,01,14,16,08,-3.30
2020,01,14,16,09,-3.30
2020,01,14,16,10,-3.30
2020,01,14,16,11,-3.30
2020,01,14,16,12,-3.30
2020,01,14,16,13,-3.30
2020,01,14,16,14,-3.30
2020,01,14,16,15,-3.30
2020,01,14,16,16,-3.40
2020,01,14,16,17,-3.40
2020,01,14,16,18,-3.40
2020,01,14,16,19,-3.40
2020,01,14,16,20,-3.40
2020,01,14,16,21,-3.40
2020,01,14,16,22,-3.40
2020,01,14,16,23,-3.40
2020,01,14,16,24,-3.40
2020,01,14,16,25,-3.40
2020,01,14,16,26,-3.40
2020,01,14,16,27,-3.40
2020,01,14,16,28,-3.40
2020,01,14,16,29,-3.40
2020,01,14,16,30,-3.50
2020,01,14,16,31,-3.50
2020,01,14,16,32,-3.50
2020,01,14,16,33,-3.60
2020,01,14,16,34,-3.60
2020,01,14,16,35,-3.60
2020,01,14,16,36,-3.60
2020,01,14,16,37,-3.70
2020,01,14,16,38,-3.70
2020,01,14,16,39,-3.70
2020,01,14,16,40,-3.70
2020,01,14,16,41,-3.70
2020,01,14,16,42,-3.80
2020,01,14,16,43,-3.80
2020,01,14,16,44,-3.80
2020,01,14,16,45,-3.80
2020,01,14,16,46,-3.80
2020,01,14,16,47,-3.80
2020,01,14,16,48,-3.80
2020,01,14,16,49,-3.80
2020,01,14,16,50,-3.80
2020,01,14,16,51,-3.80
2020,01,14,16,52,-3.80
2020,01,14,16,53,-3.80
2020,01,14,16,54,-3.80
2020,01,14,16,55,-3.90
2020,01,14,16,56,-3.90
2020,01,14,16,57,-3.90
2020,01,14,16,58,-3.90
2020,01,14,16,59,-3.90
2020,01,14,17,00,-3.90
2020,01,14,17,01,-3.90
2020,01,14,17,02,-4.00
2020,01,14,17,03,-4.00
2020,01,14,17,04,-4.00
2020,01,14,17,05,-4.10
2020,01,14,17,06,-4.10
2020,01,14,17,07,-4.10
2020,01,14,17,08,-4.10
2020,01,14,17,09,-4.20
2020,01,14,17,10,-4.20
2020,01,14,17,11,-4.20
2020,01,14,17,12,-4.20
2020,01,14,17,13,-4.20
2020,01,14,17,14,-4.20
2020,01,14,17,15,-4.20
2020,01,14,17,16,-4.20
2020,01,14,17,17,-4.30
2020,01,14,17,18,-4.30
2020,01,14,17,19,-4.30